Location: Unspecified
(0.0000°N, 0.0000°E)
Time: 13:03:57
(UTC+00:00)

Okean 3 - Pass Details

Date: 03 June 2019
Orbit: 577 x 601 km, 82.5° (Epoch: 19 June)

Event Time Altitude Azimuth Distance (km) Brightness Sun altitude
Rises 19:15:45 0° 195° (SSW) 2,792 6.8 -17.9°
Reaches altitude 10° 19:18:01 10° 202° (SSW) 1,889 6.0 -18.4°
Maximum altitude 19:21:59 43° 274° (W) 813 4.6 -19.3°
Drops below altitude 10° 19:25:55 10° 346° (NNW) 1,880 6.5 -20.2°
Sets 19:28:11 0° 353° (N) 2,776 7.3 -20.7°
